FW0579 Weather Reports


Display with metric or nautical units.
time (UTC)temp
F
wind
direction
speed
MPH
gust
MPH
rain 1hr
in
rain 24hr
in
rain mn
in
humidity
%
barometer
mb
20260903094554 59 360 0.0 2.0 0.00 0.00 0.00 85 1015.3
20260903093051 59 360 1.0 3.0 0.00 0.00 0.00 85 1015.4
20260903091556 59 360 1.0 3.0 0.00 0.00 0.00 84 1015.5
20260903090050 59 360 1.0 3.0 0.00 0.00 0.00 84 1015.7
20260903084548 60 360 1.0 4.0 0.00 0.00 0.00 83 1015.7
20260903083043 60 360 0.0 3.0 0.00 0.00 0.00 83 1015.7
20260903081541 60 259 0.0 4.0 0.00 0.00 0.00 82 1015.7
20260903080040 61 265 2.0 6.0 0.00 0.00 0.00 82 1015.8
20260903074540 61 235 0.0 2.0 0.00 0.00 0.00 81 1015.7
20260903073039 61 360 1.0 5.0 0.00 0.00 0.00 80 1015.7
20260903071547 62 360 3.0 9.0 0.00 0.00 0.00 79 1015.6
20260903070034 62 360 4.0 8.0 0.00 0.00 0.00 78 1015.6
20260903064531 63 360 5.0 9.0 0.00 0.00 0.00 77 1015.5
20260903063027 63 360 6.0 11.0 0.00 0.00 0.00 76 1015.6
20260903061525 64 237 6.0 12.0 0.00 0.00 0.00 74 1015.6
20260903060022 64 360 6.0 13.0 0.00 0.00 0.00 73 1015.6
20260903054521 65 277 7.0 12.0 0.00 0.00 0.00 72 1015.5
20260903053020 65 277 6.0 12.0 0.00 0.00 0.00 71 1015.8
20260903051526 66 233 4.0 10.0 0.00 0.00 0.00 70 1015.7
20260903050012 67 269 5.0 15.0 0.00 0.00 0.00 68 1015.6
20260903044508 67 241 5.0 12.0 0.00 0.00 0.00 67 1015.5
20260903043011 68 360 7.0 14.0 0.00 0.00 0.00 66 1015.3
20260903041517 68 360 4.0 14.0 0.00 0.00 0.00 65 1015.3
20260903040014 69 263 8.0 14.0 0.00 0.00 0.00 63 1015.1
20260903034507 69 240 5.0 10.0 0.00 0.00 0.00 60 1014.7
20260903033013 70 246 5.0 9.0 0.00 0.00 0.00 57 1014.6
20260903031502 70 360 5.0 9.0 0.00 0.00 0.00 56 1014.4
20260903030003 71 360 4.0 9.0 0.00 0.00 0.00 54 1014.3
20260903024505 71 240 5.0 10.0 0.00 0.00 0.00 53 1014.3
20260903023002 72 281 5.0 10.0 0.00 0.00 0.00 53 1014.3
20260903021502 74 360 5.0 10.0 0.00 0.00 0.00 54 1014.4
20260903020007 75 273 4.0 11.0 0.00 0.00 0.00 54 1014.3
20260903014500 76 247 5.0 12.0 0.00 0.00 0.00 54 1014.5
20260903013109 77 291 4.0 10.0 0.00 0.00 0.00 53 1014.4
20260903011559 78 271 2.0 9.0 0.00 0.00 0.00 51 1014.3
20260903010104 79 246 5.0 11.0 0.00 0.00 0.00 50 1014.4
20260903004605 80 268 6.0 13.0 0.00 0.00 0.00 47 1014.2
20260903003100 81 254 3.0 8.0 0.00 0.00 0.00 46 1014.3
20260903001558 81 238 2.0 12.0 0.00 0.00 0.00 45 1014.5
20260903000057 82 262 2.0 7.0 0.00 0.00 0.00 43 1014.7
20260902234614 82 238 1.0 4.0 0.00 0.00 0.00 44 1014.8
20260902233101 82 275 4.0 9.0 0.00 0.00 0.00 42 1014.8
20260902231601 81 295 6.0 11.0 0.00 0.00 0.00 43 1014.8
20260902230104 82 273 4.0 10.0 0.00 0.00 0.00 43 1014.8
20260902224610 81 275 1.0 3.0 0.00 0.00 0.00 44 1015.1
20260902223049 80 229 2.0 5.0 0.00 0.00 0.00 46 1015.2
20260902221548 81 205 1.0 9.0 0.00 0.00 0.00 45 1015.5
20260902220051 82 153 2.0 5.0 0.00 0.00 0.00 43 1015.7
20260902214547 81 202 2.0 10.0 0.00 0.00 0.00 45 1016.0
20260902213047 82 202 1.0 10.0 0.00 0.00 0.00 44 1016.0
20260902211546 82 180 1.0 6.0 0.00 0.00 0.00 45 1015.9
20260902210044 80 201 6.0 11.0 0.00 0.00 0.00 45 1016.1
20260902204543 78 238 1.0 10.0 0.00 0.00 0.00 48 1016.2
20260902203043 79 232 3.0 12.0 0.00 0.00 0.00 49 1016.3
20260902201559 78 220 4.0 9.0 0.00 0.00 0.00 48 1016.5
20260902200057 78 200 2.0 11.0 0.00 0.00 0.00 48 1016.7
20260902194541 79 217 4.0 9.0 0.00 0.00 0.00 46 1016.8
20260902193043 80 230 4.0 12.0 0.00 0.00 0.00 46 1016.9
20260902191539 79 219 1.0 4.0 0.00 0.00 0.00 49 1016.8
20260902190138 79 230 3.0 10.0 0.00 0.00 0.00 48 1017.0
20260902184534 77 233 1.0 10.0 0.00 0.00 0.00 49 1017.1
20260902183031 75 206 2.0 9.0 0.00 0.00 0.00 52 1017.2
20260902181530 76 215 1.0 5.0 0.00 0.00 0.00 52 1017.3
20260902180025 75 121 1.0 7.0 0.00 0.00 0.00 53 1017.3
20260902174521 74 111 1.0 4.0 0.00 0.00 0.00 56 1017.1
20260902173018 74 209 1.0 5.0 0.00 0.00 0.00 55 1017.1
20260902171515 72 173 0.0 4.0 0.00 0.00 0.00 59 1017.2
20260902170011 71 71 0.0 3.0 0.00 0.00 0.00 61 1017.1
20260902164511 69 63 1.0 4.0 0.00 0.00 0.00 66 1016.9
20260902163006 68 67 1.0 3.0 0.00 0.00 0.00 67 1017.1
20260902161505 66 69 1.0 5.0 0.00 0.00 0.00 72 1017.1
20260902160100 64 360 3.0 5.0 0.00 0.00 0.00 76 1017.1
20260902154555 62 360 2.0 6.0 0.00 0.00 0.00 81 1017.1
20260902153053 61 76 1.0 4.0 0.00 0.00 0.00 83 1017.0
20260902151551 59 70 3.0 6.0 0.00 0.00 0.00 85 1016.9
20260902150050 58 77 3.0 5.0 0.00 0.00 0.00 86 1016.8
20260902144545 56 51 1.0 4.0 0.00 0.00 0.00 86 1016.7
20260902143044 55 46 0.0 0.0 0.00 0.00 0.00 87 1016.6
20260902141542 55 48 0.0 0.0 0.00 0.00 0.00 87 1016.7
20260902140041 54 360 0.0 0.0 0.00 0.00 0.00 86 1016.5
20260902134538 53 360 0.0 0.0 0.00 0.00 0.00 86 1016.4
20260902133035 53 360 0.0 0.0 0.00 0.00 0.00 86 1016.1
20260902131535 53 360 0.0 0.0 0.00 0.00 0.00 86 1016.0
20260902130039 53 360 0.0 0.0 0.00 0.00 0.00 86 1015.8
20260902124532 53 360 0.0 0.0 0.00 0.00 0.00 85 1015.8
20260902123034 53 360 0.0 0.0 0.00 0.00 0.00 86 1015.8
20260902121532 53 360 0.0 0.0 0.00 0.00 0.00 85 1015.7
20260902120029 53 360 0.0 0.0 0.00 0.00 0.00 85 1015.7
20260902114534 53 360 0.0 0.0 0.00 0.00 0.00 84 1015.7
20260902113029 53 360 0.0 0.0 0.00 0.00 0.00 84 1015.9
20260902111538 53 360 0.0 0.0 0.00 0.00 0.00 84 1016.1
20260902110030 53 360 0.0 0.0 0.00 0.00 0.00 83 1016.1
20260902104537 53 360 0.0 0.0 0.00 0.00 0.00 82 1016.3
20260902103022 53 360 0.0 0.0 0.00 0.00 0.00 82 1016.5
20260902101520 54 360 0.0 0.0 0.00 0.00 0.00 82 1016.6
20260902100029 54 360 0.0 0.0 0.00 0.00 0.00 81 1016.4